GW1083 Weather Reports


Display with metric or nautical units.
time (UTC)temp
F
wind
direction
speed
MPH
gust
MPH
rain 1hr
in
rain 24hr
in
rain mn
in
humidity
%
barometer
mb
20260507060636 57 165 0.0 200.0 0.24 0.00 0.26 95 750.8
20260507055104 58 253 0.0 200.0 0.26 0.00 0.26 94 875.2
20260507054604 58 265 0.0 200.0 0.25 0.00 0.25 94 845.2
20260507054104 58 254 0.0 200.0 0.25 0.00 0.25 93 889.9
20260507053604 58 254 0.0 200.0 0.24 0.00 0.24 93 873.4
20260507053104 58 252 0.0 200.0 0.24 0.00 0.24 92 840.1
20260507052604 58 201 0.0 200.0 0.22 0.00 0.22 92 784.8
20260507052104 58 285 0.0 200.0 0.18 0.00 0.18 91 766.7
20260507051604 59 223 0.0 200.0 0.14 0.00 0.14 89 709.8
20260507051104 60 168 0.0 200.0 0.09 0.00 0.09 87 677.9
20260507050604 61 241 0.0 200.0 0.03 0.00 0.03 84 773.0
20260507050104 61 311 0.0 200.0 0.00 0.00 0.00 81 794.2
20260507045604 61 68 0.0 200.0 0.00 0.00 0.00 78 722.2
20260507045104 62 212 0.0 200.0 0.00 0.00 0.00 78 739.8
20260507044604 62 276 0.0 200.0 0.00 0.00 0.00 77 739.7
20260507043548 63 355 0.0 200.0 0.00 0.00 0.00 80 675.8
20260507043047 63 129 0.0 200.0 0.00 0.00 0.00 78 682.6
20260507042546 63 43 0.0 200.0 0.00 0.00 0.00 78 631.8
20260507042045 63 220 0.0 200.0 0.00 0.00 0.00 78 696.0
20260507041544 64 136 0.0 200.0 0.00 0.00 0.00 79 656.2
20260507041043 64 78 0.0 200.0 0.00 0.00 0.00 79 550.0
20260507035521 64 70 0.0 200.0 0.00 0.00 0.00 77 594.3
20260507035020 64 179 0.0 200.0 0.00 0.00 0.00 75 722.5
20260507034519 65 32 0.0 200.0 0.00 0.00 0.00 75 689.9
20260507033503 65 354 0.0 200.0 0.00 0.00 0.00 76 619.1
20260507033002 65 67 0.0 200.0 0.00 0.00 0.00 77 627.1
20260507032501 66 50 0.0 200.0 0.00 0.00 0.00 79 633.3
20260507032000 66 95 0.0 200.0 0.00 0.00 0.13 81 610.6
20260507030953 66 138 0.0 200.0 0.00 0.00 0.13 81 727.1
20260507030452 67 249 0.0 200.0 0.00 0.00 0.13 81 777.2
20260507025950 67 250 0.0 200.0 0.00 0.00 0.13 80 692.2
20260507025449 67 273 0.0 200.0 0.00 0.00 0.13 81 719.2
20260507024442 67 326 0.0 200.0 0.00 0.00 0.13 84 682.7
20260507023425 68 206 0.0 200.0 0.00 0.00 0.13 82 821.9
20260507022924 68 217 0.0 200.0 0.00 0.00 0.13 83 830.3
20260507022423 68 205 0.0 200.0 0.00 0.00 0.13 84 783.4
20260507021922 68 218 0.0 200.0 0.00 0.00 0.13 83 799.8
20260507021421 68 284 0.0 200.0 0.00 0.00 0.13 83 798.5
20260507020920 68 230 0.0 200.0 0.00 0.00 0.13 84 791.4
20260507015904 68 326 0.0 200.0 0.00 0.00 0.13 85 758.1
20260507015404 68 171 0.0 200.0 0.00 0.00 0.13 85 777.5
20260507014348 68 241 0.0 200.0 0.00 0.00 0.13 84 794.0
20260507013847 68 210 0.0 200.0 0.00 0.00 0.13 84 773.3
20260507012830 68 190 0.0 200.0 0.00 0.00 0.13 85 726.1
20260507012329 68 203 0.0 200.0 0.00 0.00 0.13 85 744.0
20260507011312 67 207 0.0 200.0 0.00 0.00 0.13 86 739.6
20260507010812 67 191 0.0 200.0 0.00 0.00 0.13 86 737.5
20260507010311 67 217 0.0 200.0 0.00 0.00 0.13 87 747.2
20260507005810 67 208 0.0 200.0 0.00 0.00 0.13 87 728.8
20260507005308 67 205 0.0 200.0 0.00 0.00 0.13 87 700.2
20260507004808 67 193 0.0 200.0 0.00 0.00 0.13 87 678.9
20260507003255 67 165 0.0 200.0 0.00 0.00 0.13 87 642.1
20260507002754 67 165 0.0 200.0 0.00 0.00 0.13 87 644.6
20260507002253 67 164 0.0 200.0 0.00 0.00 0.13 87 648.8
20260507001752 67 165 0.0 200.0 0.00 0.00 0.13 87 657.2
20260507001251 67 165 0.0 200.0 0.00 0.00 0.13 87 673.8
20260507000751 67 278 0.0 200.0 0.00 0.00 0.13 87 711.5
20260507000251 67 181 0.0 200.0 0.00 0.00 0.13 87 596.1
20260506235243 68 99 0.0 200.0 0.00 0.00 0.13 87 415.9
20260506234742 68 87 0.0 200.0 0.00 0.00 0.13 87 405.9
20260506234241 68 87 0.0 200.0 0.00 0.00 0.13 87 406.4
20260506233225 68 87 0.0 200.0 0.00 0.00 0.13 86 404.0
20260506232218 69 84 0.0 200.0 0.00 0.00 0.13 86 405.7
20260506231717 69 84 0.0 200.0 0.00 0.00 0.13 85 411.9
20260506231215 69 84 0.0 200.0 0.00 0.00 0.13 85 423.6
20260506230715 69 92 0.0 200.0 0.00 0.00 0.13 85 442.0
20260506230215 69 92 0.0 200.0 0.00 0.00 0.13 84 460.4
20260506225715 69 92 0.0 200.0 0.00 0.00 0.13 85 496.8
20260506224709 70 179 0.0 200.0 0.00 0.00 0.13 83 616.8
20260506224208 70 179 0.0 200.0 0.00 0.00 0.13 82 553.7
20260506223707 70 69 0.0 200.0 0.00 0.00 0.13 81 452.1
20260506222651 71 165 0.0 200.0 0.00 0.00 0.13 79 643.2
20260506222150 71 178 0.0 200.0 0.00 0.00 0.13 77 686.8
20260506221649 71 174 0.0 200.0 0.00 0.00 0.13 77 703.9
20260506221147 71 209 0.0 200.0 0.00 0.00 0.13 77 730.3
20260506220131 71 212 0.0 200.0 0.00 0.00 0.13 79 724.2
20260506215630 70 189 0.0 200.0 0.00 0.00 0.13 82 667.4
20260506214623 69 197 0.0 200.0 0.00 0.00 0.13 85 472.8
20260506214122 69 56 0.0 200.0 0.00 0.00 0.13 86 348.9
20260506213621 69 56 0.0 200.0 0.00 0.00 0.13 86 374.4
20260506213120 69 56 0.0 200.0 0.00 0.00 0.13 86 425.8
20260506212617 69 55 0.0 200.0 0.00 0.00 0.13 85 528.8
20260506211611 69 137 0.0 200.0 0.00 0.00 0.13 85 617.1
20260506210555 69 132 0.0 200.0 0.00 0.00 0.13 84 583.5
20260506210054 69 142 0.0 200.0 0.00 0.00 0.13 83 623.1
20260506204533 70 134 0.0 200.0 0.00 0.00 0.13 81 530.5
20260506203526 71 158 0.0 200.0 0.00 0.00 0.13 78 617.4
20260506203025 72 118 0.0 200.0 0.00 0.00 0.13 76 675.8
20260506202524 72 188 0.0 200.0 0.00 0.00 0.13 75 722.9
20260506202024 72 185 0.0 200.0 0.00 0.00 0.13 74 728.7
20260506201523 72 205 0.0 200.0 0.00 0.00 0.13 74 724.3
20260506201022 72 191 0.0 200.0 0.00 0.00 0.13 74 733.8
20260506200006 72 204 0.0 200.0 0.00 0.00 0.13 76 689.6
20260506195505 72 205 0.0 200.0 0.00 0.00 0.13 76 737.7
20260506194448 72 187 0.0 200.0 0.00 0.00 0.13 77 721.3
20260506193947 71 194 0.0 200.0 0.00 0.00 0.13 76 730.2
20260506193446 71 195 0.0 200.0 0.00 0.00 0.13 77 725.9
20260506192945 71 175 0.0 200.0 0.00 0.00 0.13 77 737.2
20260506192444 71 198 0.0 200.0 0.00 0.00 0.13 76 756.2
20260506190355 69 170 0.0 200.0 0.00 0.00 0.13 80 761.6
20260506185854 69 217 0.0 200.0 0.00 0.00 0.13 81 791.4
20260506185353 69 242 0.0 200.0 0.00 0.00 0.13 81 787.6
20260506184852 68 215 0.0 200.0 0.00 0.00 0.13 82 766.9
20260506184351 68 205 0.0 200.0 0.00 0.00 0.13 83 736.5
20260506183334 68 189 0.0 200.0 0.00 0.00 0.13 84 715.6
20260506182327 67 170 0.0 200.0 0.00 0.00 0.13 86 712.5
20260506181826 67 153 0.0 200.0 0.00 0.00 0.13 85 730.9
20260506180809 67 202 0.0 200.0 0.00 0.00 0.13 86 773.2
20260506180308 66 214 0.0 200.0 0.00 0.00 0.13 87 760.2
20260506175808 66 207 0.0 200.0 0.00 0.00 0.13 87 755.0
20260506174751 66 164 0.0 200.0 0.00 0.00 0.13 89 715.6
20260506174250 65 190 0.0 200.0 0.00 0.00 0.13 89 739.0
20260506173749 65 223 0.0 200.0 0.00 0.00 0.13 90 750.1
20260506172732 65 187 0.0 200.0 0.00 0.00 0.13 92 714.7
20260506172231 64 183 0.0 200.0 0.00 0.00 0.13 92 709.0
20260506171730 64 221 0.0 200.0 0.00 0.00 0.13 93 721.3
20260506171229 64 180 0.0 200.0 0.00 0.00 0.13 93 684.8
20260506170728 64 188 0.0 200.0 0.00 0.00 0.13 94 690.6
20260506170227 64 147 0.0 200.0 0.00 0.00 0.13 93 645.4
20260506165726 64 170 0.0 200.0 0.00 0.00 0.13 93 685.6
20260506164719 63 188 0.0 200.0 0.00 0.00 0.13 94 653.4
20260506163156 63 177 0.0 200.0 0.00 0.00 0.13 95 674.2
20260506162139 63 169 0.0 200.0 0.00 0.00 0.13 95 664.9
20260506161638 63 158 0.0 200.0 0.01 0.00 0.13 94 652.2
20260506161137 63 160 0.0 200.0 0.02 0.00 0.13 94 644.9
20260506160636 63 161 0.0 200.0 0.04 0.00 0.13 94 649.4
20260506160135 63 181 0.0 200.0 0.05 0.00 0.13 95 660.5
20260506155635 63 134 0.0 200.0 0.07 0.00 0.13 95 630.8
20260506155134 63 188 0.0 200.0 0.08 0.00 0.13 95 614.9
20260506154127 63 166 0.0 200.0 0.08 0.00 0.13 94 676.3
20260506153626 63 191 0.0 200.0 0.09 0.00 0.13 94 681.9
20260506153125 63 151 0.0 200.0 0.09 0.00 0.13 94 663.3
20260506151553 63 175 0.0 200.0 0.11 0.00 0.13 92 683.9
20260506151052 63 210 0.0 200.0 0.09 0.00 0.11 92 706.9
20260506144457 64 177 0.0 200.0 0.05 0.00 0.05 91 685.5
20260506143956 63 199 0.0 200.0 0.05 0.00 0.05 91 699.8
20260506142949 64 154 0.0 200.0 0.03 0.00 0.03 91 624.1
20260506142448 64 164 0.0 200.0 0.02 0.00 0.02 90 656.8
20260506141947 64 177 0.0 200.0 0.02 0.00 0.02 89 656.5
20260506141446 64 140 0.0 200.0 0.01 0.00 0.01 89 660.2
20260506140945 64 175 0.0 200.0 0.01 0.00 0.01 88 678.2
20260506140444 64 170 0.0 200.0 0.01 0.00 0.01 88 674.1
20260506135943 64 159 0.0 200.0 0.00 0.00 0.00 88 665.4
20260506134926 64 185 0.0 200.0 0.00 0.00 0.00 86 690.3
20260506134425 64 173 0.0 200.0 0.00 0.00 0.00 86 668.1
20260506133924 65 187 0.0 200.0 0.00 0.00 0.00 85 666.4
20260506132907 65 203 0.0 200.0 0.00 0.00 0.00 85 642.6
20260506132406 65 153 0.0 200.0 0.00 0.00 0.00 84 584.7
20260506131905 65 159 0.0 200.0 0.00 0.00 0.00 84 553.9
20260506131405 65 133 0.0 200.0 0.00 0.00 0.00 85 525.9
20260506130348 65 62 0.0 200.0 0.00 0.00 0.00 85 490.4
20260506125847 65 130 0.0 200.0 0.00 0.00 0.00 86 603.6
20260506124830 65 197 0.0 200.0 0.00 0.00 0.00 86 656.7
20260506124329 65 167 0.0 200.0 0.00 0.00 0.00 85 595.5
20260506123828 65 111 0.0 200.0 0.00 0.00 0.00 86 565.6
20260506123326 65 154 0.0 200.0 0.00 0.00 0.00 85 640.6
20260506122825 65 166 0.0 200.0 0.00 0.00 0.00 84 667.6
20260506122324 65 202 0.0 200.0 0.00 0.00 0.00 83 681.8
20260506121317 65 151 0.0 200.0 0.00 0.00 0.00 82 636.7
20260506120816 65 195 0.0 200.0 0.00 0.00 0.00 83 682.8
20260506120315 65 153 0.0 200.0 0.00 0.00 0.00 83 654.6
20260506115814 65 168 0.0 200.0 0.00 0.00 0.00 82 654.3
20260506115313 65 168 0.0 200.0 0.00 0.00 0.00 83 649.5
20260506113750 65 176 0.0 200.0 0.00 0.00 0.00 83 659.8
20260506113249 65 151 0.0 200.0 0.00 0.00 0.00 83 652.9
20260506112748 65 167 0.0 200.0 0.00 0.00 0.00 83 651.7
20260506111731 65 178 0.0 200.0 0.00 0.00 0.00 83 629.9
20260506111230 65 163 0.0 200.0 0.00 0.00 0.00 83 625.5
20260506110730 65 94 0.0 200.0 0.00 0.00 0.00 83 603.4
20260506105714 64 171 0.0 200.0 0.00 0.00 0.00 83 665.3
20260506104707 64 169 0.0 200.0 0.00 0.00 0.00 84 653.9
20260506103650 64 115 0.0 200.0 0.00 0.00 0.00 84 620.6
20260506103149 64 163 0.0 200.0 0.00 0.00 0.00 84 636.8
20260506102648 64 166 0.0 200.0 0.00 0.00 0.00 84 628.3
20260506102147 64 164 0.0 200.0 0.00 0.00 0.00 84 620.2
20260506101646 64 133 0.0 200.0 0.00 0.00 0.00 84 614.6
20260506101145 64 175 0.0 200.0 0.00 0.00 0.00 84 633.3
20260506100643 64 121 0.0 200.0 0.00 0.00 0.00 84 607.7
20260506100142 64 169 0.0 200.0 0.00 0.00 0.00 84 632.4
20260506095641 64 142 0.0 200.0 0.00 0.00 0.00 83 615.7
20260506095140 64 117 0.0 200.0 0.00 0.00 0.00 83 599.5
20260506093110 65 173 0.0 200.0 0.00 0.00 0.00 82 643.9
20260506092610 65 152 0.0 200.0 0.00 0.00 0.00 82 639.3
20260506091604 65 170 0.0 200.0 0.00 0.00 0.00 81 613.1
20260506090558 65 162 0.0 200.0 0.00 0.00 0.00 81 632.7
20260506090057 65 164 0.0 200.0 0.00 0.00 0.00 81 616.9
20260506085556 65 151 0.0 200.0 0.00 0.00 0.00 80 638.1
20260506084539 65 188 0.0 200.0 0.00 0.00 0.00 81 654.2
20260506084038 65 159 0.0 200.0 0.00 0.00 0.00 80 642.5
20260506083537 65 172 0.0 200.0 0.00 0.00 0.00 81 646.1
20260506083036 65 176 0.0 200.0 0.00 0.00 0.00 81 641.9
20260506082534 65 163 0.0 200.0 0.00 0.00 0.00 80 652.0
20260506082033 65 193 0.0 200.0 0.00 0.00 0.00 80 659.4
20260506081016 66 159 0.0 200.0 0.00 0.00 0.00 80 619.0
20260506072443 67 140 0.0 200.0 0.00 0.00 0.00 78 639.0
20260506071942 67 160 0.0 200.0 0.00 0.00 0.00 77 667.2
20260506071441 67 159 0.0 200.0 0.00 0.00 0.00 77 659.0
20260506070942 67 182 0.0 200.0 0.00 0.00 0.00 77 689.5
20260506061820 67 181 0.0 200.0 0.00 0.00 0.00 76 687.7
20260506061320 67 195 0.0 200.0 0.00 0.00 0.00 76 661.4
20260506060819 67 180 0.0 200.0 0.00 0.00 0.00 75 666.9